[[{"header":{"parameterUnit":"m.s-1","parameterCategory":1,"la1":30.2991,"la2":30.254,"lo1":-89.0895,"lo2":-89.0444,"dy":0.0017,"dx":0.0017,"nx":28,"ny":28,"refTime":"2025-03-27T21:00:00:Z","depth":0,"parameterNumber":2,"parameterNumberName":"U-component_of_WINDS"},"data":[0,0,0,0,0,0,0,0,0,0,0,0,0,0,0,0,0,0,0,0,0,0,0,0,0,0,0,0,0,0,0,0,0,0,0,0,0,0,0,0,0,0,0,0,0,0,0,0,0,0,0,0,0,0,0,0,0,0,-5.3412,-5.3413,0,-5.3524,-5.3525,-5.3527,-5.3514,-5.3512,-5.3511,-5.3509,-5.3622,-5.3626,-5.3631,0,0,0,0,0,0,0,0,0,0,0,0,0,-5.3185,-5.319,-5.3411,-5.3413,-5.3414,-5.3524,-5.3525,-5.3527,-5.3514,-5.3512,-5.351,-5.3508,-5.362,-5.3626,-5.3631,0,0,0,0,0,0,0,0,0,0,0,0,0,-5.3289,-5.3191,-5.3411,-5.3421,-5.3423,-5.3524,-5.3525,-5.3527,-5.3515,-5.3512,-5.351,-5.3507,-5.3618,-5.3625,-5.3632,-5.3729,0,0,-5.3653,-5.3656,0,0,0,0,0,0,0,0,-5.3283,-5.3297,-5.3419,-5.3421,-5.3423,-5.3502,-5.3487,-5.3595,-5.3516,-5.348,-5.3509,-5.3506,-5.3584,-5.3594,-5.3621,-5.3734,-5.3739,-5.3654,-5.3658,-5.3661,-5.3663,0,0,0,0,0,0,0,-5.3276,-5.3293,-5.3456,-5.342,-5.3423,-5.342,-5.3432,-5.3507,-5.3546,-5.3483,-5.3482,-5.3496,-5.3585,-5.3614,-5.3623,-5.374,-5.3654,-5.366,-5.3664,-5.3667,-5.3939,-5.3942,0,0,0,0,0,0,-5.3267,-5.3287,-5.3452,-5.3459,-5.3345,-5.3426,-5.344,-5.348,-5.3545,-5.3552,-5.3498,-5.3495,-5.3603,-5.3615,-5.3627,-5.3744,-5.3661,-5.3668,-5.3672,-5.3936,-5.394,-5.3943,0,0,0,0,0,0,-5.3262,-5.3282,-5.3448,-5.3373,-5.3394,-5.3433,-5.3478,-5.3483,-5.3512,-5.3556,-5.3563,-5.3521,-5.3602,-5.3617,-5.3704,-5.3747,-5.3671,-5.3677,-5.3933,-5.3937,-5.3941,-5.3978,0,0,0,0,0,0,-5.3255,-5.328,-5.3317,-5.3374,-5.3398,-5.3523,-5.3481,-5.3487,-5.3525,-5.3521,-5.3579,-5.3586,-5.3601,-5.3693,-5.3711,-5.3756,-5.3683,-5.3929,-5.3935,-5.394,-5.3973,-5.3983,-5.3992,0,0,0,0,0,-5.3247,-5.3322,-5.3319,-5.3339,-5.3445,-5.3525,-5.3539,-5.3555,-5.3528,-5.3565,-5.3594,-5.3584,-5.3741,-5.3702,-5.3722,-5.3769,-5.3926,-5.3933,-5.394,-5.3969,-5.3981,-5.3992,0,0,0,0,0,0,-5.3268,-5.333,-5.3327,-5.3422,-5.3469,-5.3523,-5.357,-5.3568,-5.3622,-5.3616,-5.3634,-5.3647,-5.3734,-5.3761,-5.3717,-5.3867,-5.383,-5.3841,-5.3845,-5.3857,-5.3867,-5.3857,-5.3689,0,0,0,0,0,-5.3284,-5.3344,-5.3395,-5.3474,-5.3498,-5.3531,-5.3566,-5.3575,-5.3623,-5.3642,-5.3677,-5.3724,-5.3784,-5.3823,-5.388,-5.3978,-5.399,-5.4021,-5.403,-5.4038,-5.4046,-5.41,-5.4114,-5.3965,-5.3965,-5.3965,0,0,-5.3316,-5.3358,-5.3394,-5.3479,-5.3516,-5.3578,-5.3547,-5.3613,-5.3659,-5.3652,-5.3735,-5.3764,-5.3817,-5.391,-5.3952,-5.3935,-5.409,-5.4047,-5.4052,-5.4056,-5.4108,-5.4122,-5.4134,-5.397,-5.3969,-5.3968,0,0,-5.3406,-5.3445,-5.3515,-5.3553,-5.3611,-5.3632,-5.3649,-5.3705,-5.3723,-5.3808,-5.3804,-5.3859,-5.3962,-5.4,-5.4033,-5.4142,-5.4135,-5.4161,-5.4209,-5.4261,-5.4272,-5.4283,-5.432,-5.4333,-5.4169,-5.417,-5.417,0,-5.3439,-5.3532,-5.3551,-5.3619,-5.3656,-5.3655,-5.3726,-5.3762,-5.3835,-5.386,-5.3841,-5.397,-5.4006,-5.4108,-5.4135,-5.4162,-5.4181,-5.4152,-5.4269,-5.428,-5.429,-5.4326,-5.434,-5.4172,-5.4172,-5.4172,-5.4171,0,-5.3569,-5.3635,-5.3684,-5.3756,-5.3799,-5.3868,-5.3897,-5.3939,-5.3945,-5.3969,-5.4055,-5.4099,-5.4165,-5.4191,-5.4197,-5.4294,-5.4281,-5.4266,-5.4228,-5.4306,-5.434,-5.4354,-5.4176,-5.4175,-5.4174,-5.4174,0,0,-5.3672,-5.3755,-5.3773,-5.3805,-5.387,-5.392,-5.399,-5.4056,-5.4091,-5.4142,-5.42,-5.4289,-5.4275,-5.4313,-5.4324,-5.437,-5.4452,-5.4348,-5.435,-5.4364,-5.456,-5.4569,-5.4585,-5.4449,-5.4452,-5.4454,-5.4555,0,-5.3767,-5.389,-5.391,-5.4017,-5.4077,-5.4079,-5.414,-5.4186,-5.4211,-5.4265,-5.4293,-5.4355,-5.4333,-5.4356,-5.4402,-5.4432,-5.4491,-5.4425,-5.4501,-5.4504,-5.4484,-5.4602,-5.4612,-5.4705,-5.4568,-5.457,-5.4572,0,-5.3893,-5.3949,-5.4063,-5.412,-5.4146,-5.42,-5.4263,-5.4316,-5.4368,-5.4383,-5.4427,-5.4433,-5.4505,-5.4468,-5.4567,-5.4522,-5.4555,-5.4575,-5.4579,-5.4584,-5.454,-5.4608,-5.4735,-5.4748,-5.4593,-5.4592,-5.459,0,-5.3954,-5.4058,-5.4139,-5.4168,-5.4237,-5.4275,-5.4306,-5.4356,-5.4395,-5.445,-5.4476,-5.4539,-5.4572,-5.4621,-5.4644,-5.4615,-5.4741,-5.4706,-5.4755,-5.4754,-5.4778,-5.4776,-5.4909,-5.4805,-5.4804,-5.4804,-5.4804,0,-5.4056,-5.4125,-5.4168,-5.4217,-5.4295,-5.4319,-5.4395,-5.4425,-5.447,-5.4525,-5.4532,-5.4584,-5.4612,-5.4668,-5.4687,-5.4766,-5.4782,-5.4795,-5.4799,-5.4793,-5.4791,-5.4812,-5.4805,-5.4808,-5.4807,-5.4806,-5.4806,0,-5.4135,-5.4167,-5.4255,-5.4315,-5.4332,-5.4386,-5.4437,-5.4486,-5.4512,-5.4582,-5.46,-5.4641,-5.4708,-5.4737,-5.4819,-5.4832,-5.4921,-5.4921,-5.4903,-5.4903,-5.495,-5.4944,-5.5099,-5.512,-5.5004,-5.5005,-5.5006,0,-5.4197,-5.425,-5.4316,-5.4354,-5.4386,-5.4448,-5.4488,-5.4514,-5.4556,-5.4621,-5.4662,-5.4729,-5.4784,-5.4891,-5.4927,-5.499,-5.499,-5.5041,-5.4999,-5.4992,-5.4988,-5.4984,-5.4989,-5.5047,-5.5048,-5.5049,-5.505,0,-5.4302,-5.4316,-5.4373,-5.4438,-5.4486,-5.4538,-5.4588,-5.4619,-5.4653,-5.4699,-5.4768,-5.4811,-5.4896,-5.4962,-5.5028,-5.5059,-5.506,-5.5063,-5.5077,-5.507,-5.5056,-5.5062,-5.492,-5.5058,-5.5057,-5.5057,-5.5056,-5.5056,-5.4373,-5.442,-5.4474,-5.4539,-5.458,-5.4628,-5.4676,-5.471,-5.4768,-5.4839,-5.4852,-5.4925,-5.4978,-5.5067,-5.5101,-5.5158,-5.5146,-5.5167,-5.5172,-5.5176,-5.5177,-5.505,-5.5171,-5.5171,-5.5171,-5.517,-5.517,0,-5.4476,-5.4512,-5.4572,-5.4643,-5.4694,-5.4693,-5.4749,-5.4791,-5.4856,-5.4906,-5.4961,-5.504,-5.5105,-5.5149,-5.5214,-5.5252,-5.5254,-5.5268,-5.5264,-5.5271,-5.5186,-5.5166,-5.5265,-5.5265,-5.5265,-5.5265,-5.5265,-5.5265,-5.4536,-5.4616,-5.4636,-5.4737,-5.4773,-5.4845,-5.4877,-5.4921,-5.4961,-5.505,-5.5104,-5.5133,-5.518,-5.525,-5.531,-5.5321,-5.5344,-5.5358,-5.5368,-5.5287,-5.5277,-5.5267,-5.5249,-5.5364,-5.5364,-5.5448,-5.5449,-5.545]},{"header":{"parameterUnit":"m.s-1","parameterCategory":1,"la1":30.2991,"la2":30.254,"lo1":-89.0895,"lo2":-89.0444,"dy":0.0017,"dx":0.0017,"nx":28,"ny":28,"refTime":"2025-03-27T21:00:00:Z","depth":0,"parameterNumber":3,"parameterNumberName":"V-component_of_WINDS"},"data":[0,0,0,0,0,0,0,0,0,0,0,0,0,0,0,0,0,0,0,0,0,0,0,0,0,0,0,0,0,0,0,0,0,0,0,0,0,0,0,0,0,0,0,0,0,0,0,0,0,0,0,0,0,0,0,0,0,0,3.207,3.2071,0,3.2113,3.2113,3.2114,3.2109,3.2109,3.2108,3.2107,3.2148,3.2149,3.2151,0,0,0,0,0,0,0,0,0,0,0,0,0,3.1984,3.1986,3.207,3.2071,3.2071,3.2113,3.2113,3.2114,3.211,3.2109,3.2108,3.2107,3.2147,3.2149,3.2151,0,0,0,0,0,0,0,0,0,0,0,0,0,3.2024,3.1986,3.207,3.2074,3.2075,3.2113,3.2113,3.2114,3.211,3.2109,3.2108,3.2107,3.2147,3.2149,3.2152,3.2187,0,0,3.2159,3.216,0,0,0,0,0,0,0,0,3.2021,3.2027,3.2073,3.2074,3.2075,3.2105,3.2098,3.2138,3.211,3.2096,3.2107,3.2106,3.2134,3.2138,3.2148,3.2189,3.2191,3.2159,3.2161,3.2162,3.2163,0,0,0,0,0,0,0,3.2019,3.2025,3.2087,3.2074,3.2075,3.2074,3.2078,3.2106,3.212,3.2098,3.2097,3.2103,3.2134,3.2145,3.2149,3.2191,3.2159,3.2162,3.2163,3.2164,3.2266,3.2267,0,0,0,0,0,0,3.2015,3.2023,3.2086,3.2088,3.2045,3.2076,3.2081,3.2096,3.212,3.2123,3.2103,3.2102,3.2141,3.2146,3.215,3.2195,3.2162,3.2164,3.2166,3.2265,3.2266,3.2268,0,0,0,0,0,0,3.2013,3.2021,3.2084,3.2056,3.2064,3.2079,3.2096,3.2098,3.2108,3.2124,3.2127,3.2112,3.2141,3.2146,3.2179,3.2196,3.2166,3.2168,3.2264,3.2265,3.2267,3.2283,0,0,0,0,0,0,3.2011,3.202,3.2034,3.2056,3.2065,3.2112,3.2097,3.2099,3.2113,3.2112,3.2133,3.2135,3.214,3.2175,3.2181,3.2199,3.217,3.2262,3.2264,3.2267,3.2281,3.2285,3.2289,0,0,0,0,0,3.2008,3.2035,3.2035,3.2042,3.2083,3.2113,3.2118,3.2125,3.2115,3.2129,3.2139,3.2135,3.2193,3.2178,3.2185,3.2204,3.2261,3.2264,3.2266,3.228,3.2285,3.2289,0,0,0,0,0,0,3.2013,3.2038,3.2038,3.2073,3.2092,3.2113,3.213,3.2129,3.215,3.2148,3.2154,3.2158,3.2191,3.2201,3.2184,3.2241,3.2226,3.223,3.2233,3.2238,3.2242,3.2239,3.2172,0,0,0,0,0,3.2019,3.2042,3.2063,3.2092,3.2102,3.2115,3.2128,3.2132,3.215,3.2157,3.217,3.2188,3.221,3.2225,3.2246,3.2283,3.2288,3.2299,3.2303,3.2306,3.231,3.2332,3.2338,3.2277,3.2277,3.2277,0,0,3.203,3.2046,3.2061,3.2094,3.2108,3.2133,3.2121,3.2146,3.2164,3.2161,3.2193,3.2203,3.2223,3.2259,3.2275,3.2267,3.2328,3.231,3.2312,3.2314,3.2335,3.2341,3.2346,3.2278,3.2278,3.2278,0,0,3.2063,3.2077,3.2105,3.212,3.2143,3.2152,3.2159,3.2181,3.2188,3.2221,3.222,3.2241,3.2279,3.2294,3.2307,3.2349,3.2346,3.2356,3.2376,3.2397,3.2402,3.2407,3.2423,3.2429,3.2359,3.2359,3.2359,0,3.2073,3.211,3.2118,3.2145,3.2161,3.2161,3.2189,3.2203,3.2231,3.2242,3.2234,3.2284,3.2297,3.2337,3.2348,3.2357,3.2366,3.2353,3.2401,3.2406,3.241,3.2425,3.2431,3.2361,3.236,3.236,3.236,0,3.2123,3.2149,3.2168,3.2198,3.2216,3.2243,3.2255,3.2272,3.2275,3.2284,3.2319,3.2335,3.2361,3.2371,3.2372,3.2412,3.2407,3.24,3.2385,3.2417,3.2431,3.2437,3.2362,3.2362,3.2361,3.2361,0,0,3.2158,3.2195,3.2202,3.2217,3.2243,3.2263,3.2291,3.2318,3.2333,3.2353,3.2377,3.2411,3.2406,3.242,3.2424,3.2443,3.2478,3.2434,3.2435,3.2443,3.2523,3.2529,3.2536,3.2476,3.2477,3.2478,3.2522,0,3.2195,3.2246,3.2255,3.2299,3.2324,3.2326,3.2351,3.237,3.2381,3.2403,3.2414,3.2439,3.2429,3.2439,3.2457,3.247,3.2494,3.2466,3.2499,3.25,3.2494,3.2543,3.2548,3.2589,3.2528,3.2529,3.253,0,3.2244,3.2268,3.2315,3.2341,3.2352,3.2374,3.2401,3.2422,3.2445,3.2451,3.2469,3.2472,3.2501,3.2485,3.2526,3.2508,3.2521,3.253,3.2531,3.2535,3.2517,3.2548,3.2602,3.2608,3.2538,3.2538,3.2537,0,3.2266,3.231,3.2345,3.2357,3.2388,3.2404,3.2417,3.2439,3.2456,3.2479,3.249,3.2516,3.253,3.255,3.256,3.2547,3.2601,3.2585,3.2607,3.2607,3.2618,3.2617,3.2675,3.2626,3.2626,3.2626,3.2626,0,3.2306,3.2335,3.2356,3.2377,3.2411,3.2422,3.2454,3.2467,3.2487,3.251,3.2513,3.2535,3.2547,3.2571,3.2578,3.2612,3.2618,3.2624,3.2626,3.2624,3.2624,3.2634,3.2631,3.2627,3.2627,3.2627,3.2627,0,3.2337,3.2352,3.239,3.2418,3.2425,3.2449,3.2472,3.2493,3.2504,3.2535,3.2542,3.256,3.2589,3.2601,3.2635,3.2641,3.268,3.2679,3.2673,3.2674,3.2695,3.2693,3.2762,3.2772,3.2716,3.2716,3.2717,0,3.2362,3.2385,3.2416,3.2433,3.2448,3.2474,3.2492,3.2504,3.2523,3.2552,3.2569,3.2599,3.2623,3.2668,3.2684,3.2711,3.2711,3.2734,3.2715,3.2714,3.2713,3.2712,3.2715,3.2737,3.2737,3.2738,3.2738,0,3.2405,3.2412,3.2438,3.2468,3.249,3.2513,3.2536,3.2549,3.2565,3.2586,3.2616,3.2635,3.2672,3.2701,3.273,3.2743,3.2744,3.2744,3.2751,3.2749,3.2745,3.2749,3.2683,3.2742,3.2742,3.2741,3.2741,3.2741,3.2434,3.2455,3.2481,3.2511,3.253,3.2552,3.2574,3.259,3.2616,3.2648,3.2653,3.2686,3.271,3.2749,3.2764,3.2789,3.2784,3.2793,3.2795,3.2798,3.28,3.2741,3.2794,3.2794,3.2794,3.2794,3.2794,0,3.2478,3.2495,3.2523,3.2556,3.258,3.258,3.2606,3.2626,3.2656,3.2678,3.2703,3.2739,3.2768,3.2787,3.2817,3.2834,3.2835,3.2841,3.284,3.2844,3.2802,3.2794,3.284,3.284,3.284,3.284,3.284,3.284,3.2503,3.2541,3.2551,3.2598,3.2615,3.2649,3.2664,3.2685,3.2704,3.2744,3.2769,3.2782,3.2804,3.2835,3.2862,3.2867,3.2878,3.2885,3.289,3.2851,3.2846,3.2842,3.2834,3.2887,3.2887,3.2929,3.2929,3.2929]}]]